Location: Ripley
(48.3812°N, 115.4473°W)
Time: 04:34:41
(UTC+00:00)

CAS-6 - Pass Details

Date: 26 June 2022
Orbit: 613 x 634 km, 97.9° (Epoch: 13 August)

Event Time Altitude Azimuth Distance (km) Brightness Sun altitude
Exits shadow 07:07:44 12° 234° (SW) 1,896 ? -17.8°
Maximum altitude 07:10:08 17° 270° (W) 1,598 ? -17.8°
Drops below altitude 10° 07:13:00 10° 311° (NW) 2,012 ? -17.9°
Sets 07:15:55 0° 332° (NNW) 2,920 ? -18.0°
